Regional Weather Roundup
Issued by NWS San Diego, CA

Home | Current Version | Previous Version | Text Only | Print | Product List | Glossary On
Versions: 1 2 3 4 5 6 7 8 9 10 11 12 13 14 15 16 17 18 19 20 21 22 23 24 25 26 27 28 29 30 31 32 33 34 35 36 37 38 39 40 41 42 43 44 45 46 47 48 49 50
000
ASUS46 KSGX 250411
RWRSGX

SAN DIEGO HOURLY WEATHER ROUNDUP
NATIONAL WEATHER SERVICE SAN DIEGO CA
900 PM PDT MON JUL 24 2017

NOTE: "FAIR" INDICATES FEW OR NO CLOUDS BELOW 12,000 FEET WITH NO
SIGNIFICANT WEATHER AND/OR OBSTRUCTIONS TO VISIBILITY.

CAZ042-043-060-061-PZZ750-775-250500-

GREATER SAN DIEGO AREA

CITY           SKY/WX    TMP DP  RH WIND       PRES   REMARKS
SAN DIEGO AP   PTCLDY    71  63  75 S8        29.93R
NATIONAL CITY    N/A     71  65  82 CALM      29.94R
CHULA VISTA      N/A     69  65  86 SW3       29.84R
IMPERIAL BEACH PTCLDY    69  62  78 SW3       29.93R
BROWN FIELD    CLEAR     67  62  84 W3        29.93R
MIRAMAR MCAS   PTCLDY    73  61  65 SW5       29.92R
MONTGOMERY FLD CLEAR     71  63  75 S6        29.93R

$$

NORTH SAN DIEGO COUNTY

CITY           SKY/WX    TMP DP  RH WIND       PRES   REMARKS
CAMP PENDLETON PTCLDY    62  59  90 SW3       29.91R
OCEANSIDE AP   CLEAR     72  66  81 W3        29.90R
OCEANSIDE HBR    N/A     71  66  84 CALM      29.93R
VISTA            N/A     71  65  80 CALM      29.87R
CARLSBAD       CLEAR     71  65  81 SW6       29.90R
DEL MAR          N/A     69  65  86 CALM      29.93R
LA JOLLA SCRIP   N/A     69  66  90 SW1       29.91R
FALLBROOK        N/A     70  67  90 CALM      29.90R
ESCONDIDO        N/A     72  64  76 CALM      29.92R
SAN MARCOS       N/A     71  64  79 CALM      29.92R
POWAY            N/A     72  63  73 CALM      29.91R

$$

EAST SAN DIEGO COUNTY

CITY           SKY/WX    TMP DP  RH WIND       PRES   REMARKS
RAMONA         CLEAR     68  63  84 W3        29.94R
SANTEE LAKES     N/A     72  63  72 SW3       29.90R
LA MESA          N/A     69  62  79 CALM      29.85R
JAMUL            N/A     68  62  80 CALM      29.91R
DESCANSO N       N/A     64  60  87 CALM      29.79R
CAMPO            N/A     67  62  84 S10       29.95R

$$

ORANGE COUNTY AND THE LOS ANGELES BASIN

CITY           SKY/WX    TMP DP  RH WIND       PRES   REMARKS
JOHN WAYNE AP  MOCLDY    72  65  78 SW7       29.89R
LAKE FOREST FR   N/A     70  61  72 CALM      29.78R
HUNTINGTON BCH   N/A     69  66  88 CALM      29.90R
LOS ALAMITOS   FAIR      70  64  81 S3        29.88R
FULLERTON      PTCLDY    75  60  59 SW3       29.87R
LONG BEACH     MOCLDY    72  64  76 NW6       29.88R
L.A. AP        MOCLDY    69  65  86 W8        29.89R
L.A. DOWNTOWN  MOCLDY    73  64  73 W3        29.88R

$$

THE INLAND EMPIRE

CITY           SKY/WX    TMP DP  RH WIND       PRES   REMARKS
CORONA         MOCLDY    73  64  73 NW6       29.90R
CHINO          PTCLDY    73  63  70 SW6       29.91R
ONTARIO        MOCLDY    74  63  68 SW6       29.90R
SAN BERNARDINO MOCLDY    77  63  61 SW6       29.91R HAZE
RIVERSIDE AP   PTCLDY    73  64  73 W9        29.90R
MORENO VALLEY    N/A     74  66  75 NW3       28.03R
MARCH ARB      PTCLDY    72  64  76 W6        29.92R
HORSETHIEF CYN   N/A     72  60  67 CALM      29.89R
PERRIS           N/A     74  65  74 NW7       29.90R
HEMET EAST       N/A     75  58  56 SW2       29.92R
FRENCH VALLEY  MOCLDY    70  61  73 SE6       29.94R
TEMECULA         N/A     71  63  77 S3        29.95R

$$

SAN BERNARDINO AND RIVERSIDE COUNTY MOUNTAINS

CITY           SKY/WX    TMP DP  RH WIND       PRES   REMARKS
BIG BEAR AP    PTCLDY    63  55  77 CALM      30.21R
PINE COVE        N/A     66  54  64 CALM      29.80R

$$

SOUTHERN DESERT INCLUDING THE COACHELLA VALLEY

CITY           SKY/WX    TMP DP  RH WIND       PRES   REMARKS
PALM SPRINGS   PTCLDY    95  55  26 NW9       29.79R
THOUSAND PALMS   N/A     92  56  29 NW6       29.74R
PALM DESERT      N/A     94  58  29 N5        29.99S
THERMAL        PTCLDY    91  70  49 CALM      29.72R HX  96
BLYTHE         PTCLDY    94  68  42 NE5       29.78R HX  98
IMPERIAL AP    MOCLDY    95  66  38 SE10      29.73R HX  98
MEXICALI       PTCLDY    90  63  40 SE7       29.76R

$$

UPPER DESERT

CITY           SKY/WX    TMP DP  RH WIND       PRES   REMARKS
VICTORVILLE AP MOCLDY    82  48  30 CALM      29.94R
HESPERIA         N/A     77  56  48 W7        29.88R
PALMDALE       MOCLDY    80  56  43 SW21      29.91R
LANCASTER      PTCLDY    79  48  33 SW13      29.90R
EDWARDS AFB    MOCLDY    82  52  34 SW10      29.87R
DAGGETT        MOCLDY    86  63  45 SE6       29.84F
29 PALMS N     PTCLDY    84  66  54 N9        29.94R
NEEDLES        PTCLDY    93  66  40 S10       29.82R HX  96

$$

REGIONAL REPORTS

CITY           SKY/WX    TMP DP  RH WIND       PRES   REMARKS
SANTA BARBARA  MOCLDY    63  61  93 W9        29.89R
SANDBERG       PTCLDY    68  54  60 SW7       30.07R
LAS VEGAS NV   CLOUDY    90  61  37 S8        29.85R
PHOENIX AZ     CLOUDY    88  70  55 S6        29.86R
TIJUANA        PTCLDY    68  63  83 NW14      29.95R
ENSENADA NW      N/A     69  32  25 CALM      29.90R

$$

OFFSHORE ISLANDS

CITY           SKY/WX    TMP DP  RH WIND       PRES   REMARKS
CATALINA ARPT  CLOUDY    65  59  81 S3        29.94R
SAN NICOLAS IS PTCLDY    60  32  34 SW8       29.91R

$$

MARINE AND OFFSHORE BUOY REPORTS

STATION/POSITION SKY/WX   TEMP    WIND        PRES    VSBY  SWELL
                          AIR SEA DIR/SP/G                  HT/PER/DIR
                          (F)     (DEG/KT/KT) (MB)    (MI)  (FT/S/D)
TANNER BANKS               62 64  250/  6/  8 1012.2          3/310/ 9
S CLEMENTE BASIN              71  230/  6/  8 1013.0R         3/180/13
SAN NICOLAS IS.               67                N/A           2/230/11
SO. S. ROSA ISLA           60 64  290/  4/  8 1012.4R         5/310/11
W. S. BARBARA CH           59 60  290/  4/  6 1012.4R         3/280/ 8
M. S. BARBARA CH           62 66  270/  8/ 10 1013.0R         2/260/ 8
S. MONICA BASIN               71  280/  8/ 12 1011.9R         3/260/ 8
S PEDRO CHANNEL               71                N/A           2/180/11
CMP PENDLETON NS              76                N/A           2/200/13
OCEANSIDE OFFSHR              74                N/A           2/190/11
TORREY PINES OTR              75                N/A           2/190/11
SAN DIEGO BAY                 78              1013.6R
POINT LOMA SOUTH              70                N/A           2/200/13

$$




USA.gov is the U.S. government's official web portal to all federal, state and local government web resources and services.